GW0360 Weather Reports


Display with metric or nautical units.
time (UTC)temp
F
wind
direction
speed
MPH
gust
MPH
rain 1hr
in
rain 24hr
in
rain mn
in
humidity
%
barometer
mb
20260906181040 94 54 0.0 3.0 0.00 0.00 0.00 51 1015.3
20260906180543 95 0 1.0 4.0 0.00 0.00 0.00 50 1015.5
20260906180122 96 205 0.0 4.0 0.00 0.00 0.00 49 1015.6
20260906175543 95 248 1.0 3.0 0.00 0.00 0.00 53 1015.7
20260906175047 93 0 0.0 2.0 0.00 0.00 0.00 56 1015.8
20260906174619 92 0 0.0 2.0 0.00 0.00 0.00 56 1016.0
20260906174042 92 0 0.0 3.0 0.00 0.00 0.00 56 1016.0
20260906173542 92 0 0.0 3.0 0.00 0.00 0.00 57 1016.1
20260906173107 92 144 1.0 3.0 0.00 0.00 0.00 56 1016.1
20260906172540 92 0 0.0 3.0 0.00 0.00 0.00 57 1016.3
20260906172040 92 155 0.0 4.0 0.00 0.00 0.00 56 1016.3
20260906171614 92 0 1.0 4.0 0.00 0.00 0.00 58 1016.4
20260906171044 91 0 0.0 3.0 0.00 0.00 0.00 57 1016.5
20260906170540 90 0 0.0 3.0 0.00 0.00 0.00 58 1016.6
20260906170112 90 130 0.0 2.0 0.00 0.00 0.00 58 1016.8
20260906165541 90 0 0.0 4.0 0.00 0.00 0.00 57 1016.8
20260906165041 90 223 1.0 4.0 0.00 0.00 0.00 57 1016.8
20260906164559 90 0 1.0 3.0 0.00 0.00 0.00 57 1016.8
20260906164041 90 75 0.0 4.0 0.00 0.00 0.00 57 1016.8
20260906163546 90 0 1.0 4.0 0.00 0.00 0.00 58 1016.8
20260906163112 90 109 0.0 3.0 0.00 0.00 0.00 58 1016.8
20260906162542 89 98 1.0 4.0 0.00 0.00 0.00 58 1016.7
20260906162040 89 0 1.0 4.0 0.00 0.00 0.00 58 1016.7
20260906161622 89 108 1.0 4.0 0.00 0.00 0.00 57 1016.7
20260906161043 89 0 0.0 3.0 0.00 0.00 0.00 59 1016.7
20260906160544 89 168 1.0 4.0 0.00 0.00 0.00 59 1016.5
20260906160059 89 133 0.0 4.0 0.00 0.00 0.00 59 1016.5
20260906155543 89 92 1.0 4.0 0.00 0.00 0.00 59 1016.5
20260906155041 89 85 0.0 2.0 0.00 0.00 0.00 62 1016.5
20260906154606 88 123 0.0 2.0 0.00 0.00 0.00 61 1016.4
20260906154043 88 0 0.0 2.0 0.00 0.00 0.00 62 1016.4
20260906153546 88 0 0.0 3.0 0.00 0.00 0.00 63 1016.2
20260906153114 88 221 1.0 3.0 0.00 0.00 0.00 60 1016.3
20260906152543 88 0 0.0 3.0 0.00 0.00 0.00 62 1016.3
20260906152047 88 0 0.0 3.0 0.00 0.00 0.00 63 1016.2
20260906151603 88 0 0.0 2.0 0.00 0.00 0.00 61 1016.1
20260906151043 88 126 0.0 5.0 0.00 0.00 0.00 59 1016.1
20260906150543 88 138 0.0 5.0 0.00 0.00 0.00 60 1016.1
20260906150110 88 229 2.0 5.0 0.00 0.00 0.00 60 1016.1
20260906145547 88 0 0.0 5.0 0.00 0.00 0.00 63 1016.0
20260906145044 87 119 1.0 5.0 0.00 0.00 0.00 64 1016.1
20260906144603 87 0 0.0 3.0 0.00 0.00 0.00 64 1016.0
20260906144042 87 0 0.0 0.0 0.00 0.00 0.00 65 1016.1
20260906143544 86 0 0.0 3.0 0.00 0.00 0.00 64 1016.1
20260906143101 86 0 0.0 3.0 0.00 0.00 0.00 66 1016.0
20260906142543 85 112 1.0 3.0 0.00 0.00 0.00 66 1016.1
20260906142043 85 129 0.0 3.0 0.00 0.00 0.00 68 1016.0
20260906141621 84 130 0.0 3.0 0.00 0.00 0.00 69 1016.0
20260906141043 83 0 0.0 3.0 0.00 0.00 0.00 71 1016.0
20260906140543 83 113 1.0 4.0 0.00 0.00 0.00 71 1016.0
20260906140100 83 0 0.0 4.0 0.00 0.00 0.00 72 1015.9
20260906135543 82 132 1.0 3.0 0.00 0.00 0.00 71 1016.0
20260906135043 82 119 0.0 3.0 0.00 0.00 0.00 73 1015.9
20260906134602 82 0 0.0 3.0 0.00 0.00 0.00 73 1015.9
20260906134043 81 124 0.0 3.0 0.00 0.00 0.00 74 1016.0
20260906133543 81 111 0.0 2.0 0.00 0.00 0.00 74 1015.9
20260906133111 81 133 0.0 2.0 0.00 0.00 0.00 75 1015.9
20260906132541 80 133 0.0 2.0 0.00 0.00 0.00 76 1015.8
20260906132043 80 0 0.0 2.0 0.00 0.00 0.00 77 1015.8
20260906131610 79 0 0.0 2.0 0.00 0.00 0.00 78 1015.8
20260906131043 79 0 0.0 2.0 0.00 0.00 0.00 79 1015.8
20260906130544 78 127 0.0 1.0 0.00 0.00 0.00 81 1015.8
20260906125545 77 0 0.0 2.0 0.00 0.00 0.00 84 1015.9
20260906125043 76 0 0.0 1.0 0.00 0.00 0.00 86 1015.8
20260906124606 75 0 0.0 1.0 0.00 0.00 0.00 86 1015.7
20260906124044 75 0 0.0 0.0 0.00 0.00 0.00 86 1015.6
20260906123540 75 0 0.0 0.0 0.00 0.00 0.00 86 1015.6
20260906123108 75 0 0.0 0.0 0.00 0.00 0.00 86 1015.4
20260906122544 75 0 0.0 0.0 0.00 0.00 0.00 86 1015.5
20260906122044 74 0 0.0 0.0 0.00 0.00 0.00 87 1015.4
20260906121627 74 0 0.0 0.0 0.00 0.00 0.00 87 1015.5
20260906121043 74 0 0.0 0.0 0.00 0.00 0.00 87 1015.3
20260906120544 74 0 0.0 0.0 0.00 0.00 0.00 87 1015.2
20260906120106 74 0 0.0 0.0 0.00 0.00 0.00 87 1015.1
20260906115543 74 0 0.0 0.0 0.00 0.00 0.00 87 1015.0
20260906115040 74 0 0.0 0.0 0.00 0.00 0.00 87 1015.0
20260906114557 74 0 0.0 0.0 0.00 0.00 0.00 86 1015.0
20260906114041 74 0 0.0 0.0 0.00 0.00 0.00 86 1015.0
20260906113541 74 0 0.0 0.0 0.00 0.00 0.00 86 1015.0
20260906113104 74 0 0.0 0.0 0.00 0.00 0.00 86 1015.0
20260906112540 74 0 0.0 0.0 0.00 0.00 0.00 85 1015.0
20260906112040 74 0 0.0 0.0 0.00 0.00 0.00 85 1014.9
20260906111601 74 0 0.0 0.0 0.00 0.00 0.00 85 1014.9
20260906111040 74 0 0.0 0.0 0.00 0.00 0.00 85 1014.9
20260906110543 74 0 0.0 0.0 0.00 0.00 0.00 85 1014.8
20260906110056 74 0 0.0 0.0 0.00 0.00 0.00 85 1014.8
20260906105541 75 0 0.0 0.0 0.00 0.00 0.00 84 1014.8
20260906105119 75 0 0.0 0.0 0.00 0.00 0.00 84 1014.7
20260906104555 75 0 0.0 0.0 0.00 0.00 0.00 84 1014.7
20260906104041 75 0 0.0 0.0 0.00 0.00 0.00 84 1014.8
20260906103544 75 0 0.0 0.0 0.00 0.00 0.00 84 1014.8
20260906103104 75 0 0.0 0.0 0.00 0.00 0.00 83 1014.8
20260906102544 75 0 0.0 0.0 0.00 0.00 0.00 83 1014.8
20260906102040 75 0 0.0 0.0 0.00 0.00 0.00 82 1014.9
20260906101603 76 0 0.0 0.0 0.00 0.00 0.00 81 1014.9
20260906101040 76 0 0.0 0.0 0.00 0.00 0.00 81 1014.7
20260906100550 76 0 0.0 0.0 0.00 0.00 0.00 81 1014.8
20260906100058 76 0 0.0 0.0 0.00 0.00 0.00 81 1014.9
20260906095541 76 0 0.0 0.0 0.00 0.00 0.00 82 1014.8
20260906095140 76 0 0.0 0.0 0.00 0.00 0.00 82 1014.8
20260906094606 76 0 0.0 0.0 0.00 0.00 0.00 81 1014.7
20260906094040 76 0 0.0 0.0 0.00 0.00 0.00 81 1014.8
20260906093541 76 0 0.0 0.0 0.00 0.00 0.00 80 1014.8
20260906093101 77 0 0.0 0.0 0.00 0.00 0.00 80 1014.7
20260906092540 77 0 0.0 0.0 0.00 0.00 0.00 79 1014.6
20260906092041 77 0 0.0 0.0 0.00 0.00 0.00 78 1014.5
20260906091603 77 0 0.0 0.0 0.00 0.00 0.00 78 1014.6
20260906091047 77 0 0.0 0.0 0.00 0.00 0.00 78 1014.6
20260906090543 77 0 0.0 0.0 0.00 0.00 0.00 78 1014.6
20260906090059 78 0 0.0 0.0 0.00 0.00 0.00 77 1014.5
20260906085540 78 0 0.0 0.0 0.00 0.00 0.00 77 1014.5
20260906085043 78 0 0.0 0.0 0.00 0.00 0.00 76 1014.2
20260906084602 78 0 0.0 0.0 0.00 0.00 0.00 76 1014.3
20260906084040 79 0 0.0 0.0 0.00 0.00 0.00 75 1014.2
20260906083540 79 0 0.0 0.0 0.00 0.00 0.00 75 1014.1
20260906083104 79 0 0.0 0.0 0.00 0.00 0.00 74 1014.1
20260906082543 79 0 0.0 0.0 0.00 0.00 0.00 74 1014.2
20260906082040 79 0 0.0 2.0 0.00 0.00 0.00 73 1014.1
20260906081600 79 0 0.0 2.0 0.00 0.00 0.00 74 1014.2
20260906081115 79 173 0.0 1.0 0.00 0.00 0.00 74 1014.2
20260906080540 79 0 0.0 1.0 0.00 0.00 0.00 74 1014.1
20260906080101 79 0 0.0 1.0 0.00 0.00 0.00 74 1013.9
20260906075546 80 173 0.0 1.0 0.00 0.00 0.00 74 1013.9
20260906075045 80 0 0.0 1.0 0.00 0.00 0.00 73 1013.9
20260906074602 80 0 0.0 0.0 0.00 0.00 0.00 73 1014.0
20260906074048 80 0 0.0 0.0 0.00 0.00 0.00 73 1014.0
20260906073547 80 0 0.0 0.0 0.00 0.00 0.00 72 1014.0
20260906073100 80 0 0.0 0.0 0.00 0.00 0.00 72 1014.0
20260906072545 81 0 0.0 1.0 0.00 0.00 0.00 72 1014.0
20260906072048 81 0 0.0 2.0 0.00 0.00 0.00 71 1014.0
20260906071559 81 0 0.0 2.0 0.00 0.00 0.00 71 1014.0
20260906071044 81 0 0.0 1.0 0.00 0.00 0.00 71 1014.0
20260906070545 81 0 0.0 1.0 0.00 0.00 0.00 71 1014.0
20260906070101 82 0 0.0 1.0 0.00 0.00 0.00 70 1014.1
20260906065545 82 0 0.0 1.0 0.00 0.00 0.00 70 1014.2
20260906065044 82 0 0.0 2.0 0.00 0.00 0.00 69 1014.1
20260906064604 82 0 0.0 2.0 0.00 0.00 0.00 69 1014.2
20260906064045 83 0 0.0 2.0 0.00 0.00 0.00 68 1014.2
20260906063544 83 0 0.0 2.0 0.00 0.00 0.00 68 1014.3
20260906063100 83 0 0.0 2.0 0.00 0.00 0.00 68 1014.4
20260906062544 83 0 0.0 2.0 0.00 0.00 0.00 67 1014.4
20260906062044 83 0 0.0 3.0 0.00 0.00 0.00 67 1014.3
20260906061603 83 0 0.0 3.0 0.00 0.00 0.00 67 1014.4
20260906061045 83 0 0.0 3.0 0.00 0.00 0.00 67 1014.4
20260906060544 84 0 0.0 3.0 0.00 0.00 0.00 66 1014.4
20260906060135 84 0 0.0 2.0 0.00 0.00 0.00 66 1014.5
20260906055547 84 0 0.0 2.0 0.00 0.00 0.00 66 1014.4
20260906055045 84 0 0.0 2.0 0.00 0.00 0.00 66 1014.5
20260906054615 84 0 0.0 3.0 0.00 0.00 0.00 66 1014.5
20260906054045 84 108 0.0 3.0 0.00 0.00 0.00 66 1014.4
20260906053545 85 113 0.0 4.0 0.00 0.00 0.00 65 1014.5
20260906053101 85 127 1.0 4.0 0.00 0.00 0.00 64 1014.4
20260906052545 85 196 1.0 4.0 0.00 0.00 0.00 64 1014.5
20260906052045 85 116 1.0 3.0 0.00 0.00 0.00 65 1014.5
20260906051600 85 0 0.0 6.0 0.00 0.00 0.00 65 1014.5
20260906051044 85 0 1.0 6.0 0.00 0.00 0.00 65 1014.6
20260906050544 85 0 0.0 6.0 0.00 0.00 0.00 65 1014.6
20260906050101 85 0 0.0 2.0 0.00 0.00 0.00 65 1014.5
20260906045545 85 0 0.0 4.0 0.00 0.00 0.00 65 1014.6
20260906045045 85 103 0.0 4.0 0.00 0.00 0.00 64 1014.6
20260906044602 85 132 0.0 3.0 0.00 0.00 0.00 65 1014.4
20260906044045 85 0 0.0 2.0 0.00 0.00 0.00 65 1014.5
20260906043545 85 130 0.0 2.0 0.00 0.00 0.00 65 1014.5
20260906043059 85 0 0.0 2.0 0.00 0.00 0.00 64 1014.5
20260906042542 85 0 0.0 2.0 0.00 0.00 0.00 64 1014.6
20260906042042 85 119 0.0 3.0 0.00 0.00 0.00 65 1014.5
20260906041605 85 112 0.0 3.0 0.00 0.00 0.00 66 1014.5
20260906041042 84 112 0.0 3.0 0.00 0.00 0.00 67 1014.5
20260906040542 83 0 0.0 3.0 0.00 0.00 0.00 68 1014.4
20260906040109 83 0 0.0 3.0 0.00 0.00 0.00 68 1014.4
20260906035546 83 0 0.0 0.0 0.00 0.00 0.00 68 1014.2
20260906035045 83 0 0.0 0.0 0.00 0.00 0.00 68 1014.2
20260906034607 83 0 0.0 0.0 0.00 0.00 0.00 68 1014.1
20260906034045 83 0 0.0 0.0 0.00 0.00 0.00 67 1014.1
20260906033544 83 0 0.0 0.0 0.00 0.00 0.00 68 1014.0
20260906033100 83 0 0.0 0.0 0.00 0.00 0.00 67 1014.0
20260906032545 83 0 0.0 0.0 0.00 0.00 0.00 67 1013.9
20260906032042 83 0 0.0 0.0 0.00 0.00 0.00 67 1013.9
20260906031606 84 0 0.0 0.0 0.00 0.00 0.00 66 1013.9
20260906031045 84 0 0.0 0.0 0.00 0.00 0.00 66 1013.9
20260906030545 84 0 0.0 0.0 0.00 0.00 0.00 65 1013.9
20260906030105 84 0 0.0 0.0 0.00 0.00 0.00 65 1013.8
20260906025545 84 0 0.0 0.0 0.00 0.00 0.00 65 1013.8
20260906025047 84 0 0.0 0.0 0.00 0.00 0.00 66 1013.7
20260906024618 84 0 0.0 0.0 0.00 0.00 0.00 67 1013.7
20260906024045 83 0 0.0 0.0 0.00 0.00 0.00 68 1013.6
20260906023543 83 0 0.0 0.0 0.00 0.00 0.00 69 1013.5
20260906023101 83 0 0.0 0.0 0.00 0.00 0.00 69 1013.4
20260906022545 83 0 0.0 0.0 0.00 0.00 0.00 68 1013.4
20260906022045 84 0 0.0 0.0 0.00 0.00 0.00 67 1013.2
20260906021603 84 0 0.0 0.0 0.00 0.00 0.00 67 1013.1
20260906021045 84 0 0.0 0.0 0.00 0.00 0.00 67 1012.9
20260906020542 84 0 0.0 0.0 0.00 0.00 0.00 66 1013.0
20260906020109 85 0 0.0 0.0 0.00 0.00 0.00 66 1013.0
20260906015543 85 0 0.0 0.0 0.00 0.00 0.00 65 1012.8
20260906015045 85 0 0.0 0.0 0.00 0.00 0.00 64 1012.7
20260906014609 85 0 0.0 0.0 0.00 0.00 0.00 64 1012.6
20260906014046 86 0 0.0 0.0 0.00 0.00 0.00 63 1012.6
20260906013541 86 0 0.0 0.0 0.00 0.00 0.00 62 1012.5
20260906013104 86 0 0.0 0.0 0.00 0.00 0.00 61 1012.5
20260906012540 86 0 0.0 0.0 0.00 0.00 0.00 61 1012.4
20260906012043 87 0 0.0 0.0 0.00 0.00 0.00 60 1012.4
20260906011602 87 0 0.0 0.0 0.00 0.00 0.00 60 1012.4
20260906011040 87 0 0.0 0.0 0.00 0.00 0.00 59 1012.3
20260906010540 88 0 0.0 0.0 0.00 0.00 0.00 58 1012.2
20260906010143 88 0 0.0 0.0 0.00 0.00 0.00 58 1012.3
20260906005540 88 0 0.0 0.0 0.00 0.00 0.00 59 1012.3
20260906005042 88 0 0.0 0.0 0.00 0.00 0.00 57 1012.3
20260906004614 89 0 0.0 0.0 0.00 0.00 0.00 57 1012.2
20260906004043 89 0 0.0 0.0 0.00 0.00 0.00 57 1012.3
20260906003540 90 0 0.0 0.0 0.00 0.00 0.00 54 1012.4
20260906003104 90 0 0.0 0.0 0.00 0.00 0.00 53 1012.3
20260906002540 91 0 0.0 0.0 0.00 0.00 0.00 52 1012.3
20260906002041 92 0 0.0 1.0 0.00 0.00 0.00 50 1012.3
20260906001606 92 0 0.0 1.0 0.00 0.00 0.00 49 1012.2
20260906001040 92 0 0.0 2.0 0.00 0.00 0.00 49 1012.3
20260906000541 93 213 0.0 2.0 0.00 0.00 0.00 50 1012.2
20260906000104 93 0 0.0 3.0 0.00 0.00 0.00 49 1012.4
20260905235544 94 0 0.0 3.0 0.00 0.00 0.00 48 1012.4
20260905235040 94 186 0.0 3.0 0.00 0.00 0.00 46 1012.4
20260905234601 94 0 0.0 2.0 0.00 0.00 0.00 47 1012.4
20260905234041 94 0 0.0 2.0 0.00 0.00 0.00 47 1012.4
20260905233541 95 215 0.0 3.0 0.00 0.00 0.00 46 1012.5
20260905233103 95 0 0.0 4.0 0.00 0.00 0.00 44 1012.5
20260905232541 96 0 1.0 4.0 0.00 0.00 0.00 44 1012.3
20260905232044 96 230 0.0 4.0 0.00 0.00 0.00 44 1012.3
20260905231612 96 0 1.0 4.0 0.00 0.00 0.00 43 1012.3
20260905231040 96 221 1.0 3.0 0.00 0.00 0.00 43 1012.2
20260905230540 96 249 1.0 5.0 0.00 0.00 0.00 44 1012.2
20260905230104 96 0 0.0 5.0 0.00 0.00 0.00 43 1012.2
20260905225540 97 227 0.0 4.0 0.00 0.00 0.00 42 1012.2
20260905225040 97 171 2.0 4.0 0.00 0.00 0.00 42 1012.2
20260905224603 97 0 0.0 4.0 0.00 0.00 0.00 44 1012.2
20260905224041 97 0 0.0 9.0 0.00 0.00 0.00 42 1012.2
20260905223545 98 187 3.0 9.0 0.00 0.00 0.00 41 1012.2
20260905223100 98 226 0.0 5.0 0.00 0.00 0.00 40 1012.3
20260905222545 98 134 1.0 5.0 0.00 0.00 0.00 40 1012.4
20260905222044 99 202 2.0 5.0 0.00 0.00 0.00 40 1012.5
20260905221602 99 244 1.0 5.0 0.00 0.00 0.00 38 1012.4
20260905221044 99 120 0.0 8.0 0.00 0.00 0.00 40 1012.5
20260905220544 100 223 3.0 8.0 0.00 0.00 0.00 39 1012.6
20260905220106 99 0 1.0 6.0 0.00 0.00 0.00 39 1012.7
20260905215544 99 0 0.0 4.0 0.00 0.00 0.00 39 1012.6
20260905215043 99 136 1.0 6.0 0.00 0.00 0.00 39 1012.7
20260905214600 99 0 1.0 6.0 0.00 0.00 0.00 40 1012.7
20260905214046 99 270 1.0 7.0 0.00 0.00 0.00 39 1012.7
20260905213544 100 175 2.0 7.0 0.00 0.00 0.00 39 1012.8
20260905213100 100 221 3.0 7.0 0.00 0.00 0.00 37 1012.7
20260905212547 101 243 3.0 7.0 0.00 0.00 0.00 37 1012.8
20260905212044 100 225 2.0 10.0 0.00 0.00 0.00 37 1012.9
20260905211606 100 184 4.0 10.0 0.00 0.00 0.00 38 1012.9
20260905211044 100 219 5.0 10.0 0.00 0.00 0.00 37 1013.0
20260905210543 100 202 3.0 7.0 0.00 0.00 0.00 38 1013.1
20260905210116 99 0 0.0 4.0 0.00 0.00 0.00 40 1013.1
20260905205545 99 0 0.0 7.0 0.00 0.00 0.00 40 1013.1
20260905205044 99 207 1.0 7.0 0.00 0.00 0.00 41 1013.4
20260905204601 99 251 2.0 10.0 0.00 0.00 0.00 39 1013.4
20260905204044 100 178 3.0 10.0 0.00 0.00 0.00 38 1013.4
20260905203544 101 215 3.0 10.0 0.00 0.00 0.00 39 1013.4
20260905203101 100 253 2.0 6.0 0.00 0.00 0.00 40 1013.4
20260905202548 99 0 0.0 9.0 0.00 0.00 0.00 41 1013.5
20260905202045 100 96 2.0 9.0 0.00 0.00 0.00 42 1013.7
20260905201600 100 213 3.0 9.0 0.00 0.00 0.00 40 1013.6
20260905201048 100 241 1.0 9.0 0.00 0.00 0.00 40 1013.7
20260905200544 100 215 3.0 8.0 0.00 0.00 0.00 40 1013.8
20260905200127 100 207 1.0 7.0 0.00 0.00 0.00 39 1013.8
20260905195545 99 235 1.0 8.0 0.00 0.00 0.00 41 1013.9
20260905195045 100 134 3.0 9.0 0.00 0.00 0.00 40 1013.9
20260905194601 100 246 2.0 9.0 0.00 0.00 0.00 41 1014.0
20260905194048 100 239 3.0 9.0 0.00 0.00 0.00 39 1014.0
20260905193545 100 244 3.0 7.0 0.00 0.00 0.00 39 1014.0
20260905193102 99 255 1.0 7.0 0.00 0.00 0.00 41 1014.0
20260905192540 99 109 2.0 7.0 0.00 0.00 0.00 41 1014.0
20260905192041 99 163 2.0 6.0 0.00 0.00 0.00 40 1014.1
20260905191559 100 194 2.0 5.0 0.00 0.00 0.00 40 1014.1
20260905191040 100 163 2.0 9.0 0.00 0.00 0.00 41 1014.2
20260905190540 100 114 3.0 9.0 0.00 0.00 0.00 40 1014.3
20260905190057 99 269 1.0 10.0 0.00 0.00 0.00 40 1014.4
20260905185540 98 0 2.0 10.0 0.00 0.00 0.00 40 1014.3
20260905185040 98 239 2.0 8.0 0.00 0.00 0.00 41 1014.4
20260905184611 98 172 1.0 8.0 0.00 0.00 0.00 43 1014.4
20260905184044 98 123 2.0 8.0 0.00 0.00 0.00 44 1014.4
20260905183541 99 225 2.0 8.0 0.00 0.00 0.00 43 1014.6
20260905183103 98 227 1.0 5.0 0.00 0.00 0.00 43 1014.8
20260905182540 98 0 1.0 5.0 0.00 0.00 0.00 43 1014.9
20260905182042 97 173 1.0 7.0 0.00 0.00 0.00 45 1014.8
20260905181558 97 154 1.0 7.0 0.00 0.00 0.00 44 1015.0